Fargo, ND

9:43 PM CST on December 11, 2019 (GMT -0600)
Hector International

Weather History for KFAR - October, 2019

Change the Weather History Date:

Sunday, October 6, 2019

  Actual Average Record
Temperature  
Mean Temperature 53 °F 50 °F  
Max Temperature 61 °F 61 °F 90 °F (1993)
Min Temperature 45 °F 39 °F 19 °F (1976)
Degree Days  
Heating Degree Days 12 15  
Month to date heating degree days 113 84  
Since 1 July heating degree days 328 354  
Cooling Degree Days 0 0  
Month to date cooling degree days 0 0  
Year to date cooling degree days 527 548  
Growing Degree Days 3 (Base 50)    
Moisture  
Dew Point 41 °F    
Average Humidity 68    
Maximum Humidity 86    
Minimum Humidity 46    
Precipitation  
Precipitation T in 0.08 in 1.43 in (1982)
Month to date precipitation 1.47 0.50  
Year to date precipitation 26.17 19.10  
Snow  
Snow 0.00 in 0.00 in 0.40 in (1974)
Month to date snowfall 0.0 0.0  
Since 1 July snowfall 0.0 0.0  
Since 1 September snowfall 0.0 0.0  
Snow Depth 0.00 in    
Sea Level Pressure  
Sea Level Pressure 29.88 in    
Wind  
Wind Speed 14 mph ()    
Max Wind Speed 31 mph    
Max Gust Speed 42 mph    
Visibility 10.0 miles    
Events Rain    
T = Trace of Precipitation, MM = Missing Value Source: Averaged Metar Reports

Daily Weather History Graph

Daily Weather History Graph

Search for Another Location

Airport or City:

Astronomy

Oct. 06, 2019 Rise Set
Actual Time 7:32 AM CDT 6:57 PM CDT
Civil Twilight 7:02 AM CDT 7:27 PM CDT
Nautical Twilight 6:26 AM CDT 8:02 PM CDT
Astronomical Twilight 5:51 AM CDT 8:38 PM CDT
Moon 4:05 PM CDT (10/6) 12:02 AM CDT (10/6)
Length of Visible Light 12h 25m
Length of Day
11h 24m
First Quarter, 60% of the Moon is Illuminated
Oct 6
First Quarter
Oct 13
Full
Oct 21
Last Quarter
Oct 27
New
Nov 4
First Quarter

Hourly Weather History & Observations

Time (CDT) Temp. Windchill Dew Point Humidity Pressure Visibility Wind Dir Wind Speed Gust Speed Precip Events Conditions
12:53 AM 46.9 °F - 42.1 °F 83% 29.74 in 10.0 mi WSW 13.8 mph - N/A   Clear
1:53 AM 46.0 °F 39.9 °F 39.9 °F 79% 29.75 in 10.0 mi WSW 13.8 mph - N/A   Clear
2:53 AM 46.0 °F 39.9 °F 39.9 °F 79% 29.77 in 10.0 mi WSW 13.8 mph - N/A   Clear
3:53 AM 45.0 °F 39.3 °F 39.0 °F 80% 29.78 in 10.0 mi WSW 11.5 mph - N/A   Clear
4:53 AM 45.0 °F 38.2 °F 39.0 °F 80% 29.79 in 10.0 mi WSW 15.0 mph - N/A   Scattered Clouds
5:53 AM 46.0 °F 39.6 °F 39.0 °F 76% 29.81 in 10.0 mi WSW 15.0 mph 25.3 mph N/A   Mostly Cloudy
6:53 AM 46.0 °F 40.2 °F 39.0 °F 76% 29.82 in 10.0 mi WSW 12.7 mph - N/A   Clear
7:53 AM 46.9 °F - 39.9 °F 77% 29.83 in 10.0 mi West 13.8 mph 23.0 mph N/A   Mostly Cloudy
8:53 AM 48.9 °F - 41.0 °F 74% 29.84 in 10.0 mi West 16.1 mph - N/A   Overcast
9:53 AM 52.0 °F - 42.1 °F 69% 29.86 in 10.0 mi West 18.4 mph 26.5 mph N/A   Mostly Cloudy
10:53 AM 54.0 °F - 43.0 °F 66% 29.88 in 10.0 mi West 23.0 mph 33.4 mph N/A   Clear
11:53 AM 57.9 °F - 44.1 °F 60% 29.90 in 10.0 mi West 26.5 mph 36.8 mph N/A   Clear
12:53 PM 59.0 °F - 44.1 °F 58% 29.90 in 10.0 mi West 26.5 mph 36.8 mph N/A   Partly Cloudy
1:53 PM 60.1 °F - 39.9 °F 47% 29.90 in 10.0 mi WNW 25.3 mph 34.5 mph N/A   Scattered Clouds
2:53 PM 59.0 °F - 39.9 °F 49% 29.90 in 10.0 mi West 21.9 mph 35.7 mph N/A   Scattered Clouds
3:53 PM 60.1 °F - 41.0 °F 49% 29.90 in 10.0 mi West 20.7 mph 34.5 mph 0.00 in Rain Light Rain
4:53 PM 59.0 °F - 39.0 °F 48% 29.92 in 10.0 mi West 19.6 mph 33.4 mph 0.00 in   Overcast
5:53 PM 57.0 °F - 41.0 °F 55% 29.94 in 10.0 mi West 13.8 mph - 0.00 in Rain Light Rain
6:53 PM 54.0 °F - 42.1 °F 64% 29.95 in 10.0 mi West 9.2 mph - 0.00 in   Mostly Cloudy
7:53 PM 52.0 °F - 42.1 °F 69% 29.97 in 10.0 mi West 9.2 mph - N/A   Mostly Cloudy
8:53 PM 52.0 °F - 41.0 °F 66% 29.98 in 10.0 mi West 10.4 mph - N/A   Overcast
9:53 PM 50.0 °F - 39.9 °F 68% 29.99 in 10.0 mi West 10.4 mph - N/A   Scattered Clouds
10:53 PM 48.9 °F - 41.0 °F 74% 30.01 in 10.0 mi West 11.5 mph - N/A   Clear
11:53 PM 46.9 °F - 39.9 °F 77% 30.02 in 10.0 mi WSW 10.4 mph - N/A   Clear